Racecast

Dickson Invitational

Buckner Park · 5000m · Girls · Compiled · TN

210 runners from 2 divisions

These divisions were run separately. This is how their times compare, not how they finished — the places and scores below were never contested.

View full meet →

Team scores

Place Team Points 12345 67
1 Nolensville (TN) 56 6 11 12 13 14 16 26
2 Father Ryan (TN) 65 1 2 15 18 29 47 69
3 Dickson County (TN) 83 3 5 19 22 34 51 55
4 Fairview (TN) 115 4 8 23 35 45 85
5 Hume-Fogg Academic (TN) 128 17 20 24 27 40 66
6 Ensworth (TN) 166 9 21 25 50 61 64 67
7 University School Of Nashville (TN) 199 7 42 43 49 58 75 79
8 Franklin Road Academy (TN) 220 30 32 44 52 62 74
9 Harpeth Hall-Girls (TN) 240 10 46 57 59 68 70 71
10 Lipscomb Academy (TN) 260 39 41 48 54 78 92 93
11 Kirkwood (MO) 261 31 36 56 65 73 77 80
12 St Cecilia Academy (TN) 302 28 33 76 82 83 86 87
13 Grace Christian (Franklin) (TN) 308 37 38 63 81 89 90 98
14 Martin Luther King (TN) 364 53 60 72 88 91 97 100
15 McEwen HS (TN) 468 84 94 95 96 99

Not scored, fewer than five finishers: Chapel Hill Christian Academy (4), Riverdale (4), University School Of Nashville (3), West Creek (3), Creek Wood (3), Columbia Central (3), Gallatin (3), Northeast (3), Riverdale (2), Columbia Central (2), Columbia Central (1), Harpeth (1), Riverdale (1)

Rating scale ?

Results

Place Athlete Grade School Time Rating Points Actual race
1 Lydia Brunner 11 Father Ryan (TN) 1 19:07.0 1 1
2 Bennie Bonadies 12 Father Ryan (TN) 2 19:41.0 129.7 2 2
3 Sarah Potter 12 Dickson County (TN) 1 19:58.0 127.9 3 3
4 Andi Lerond 12 Fairview (CO) 1 20:05.0 127.1 4 4
5 Kyrian Sychareune 12 Dickson County (TN) 2 20:33.0 124.3 5 5
6 Sophia Priddy 11 Nolensville (TN) 1 20:35.0 124.1 6 6
7 Madeleine Wiseman 11 University School Of Nashville (TN) 1 20:36.0 124.0 7 7
8 Ries Lerond 12 Fairview (CO) 2 20:49.0 122.7 8 8
9 Tempo Haun 10 Ensworth (TN) 1 20:53.0 122.4 9 9
10 Alexa Sarb 9 Harpeth Hall-Girls (TN) 1 20:58.0 121.9 10 10
11 Piper McKinney 10 Nolensville (TN) 2 21:10.0 120.7 11 11
12 Anna Cable 9 Nolensville (TN) 3 21:14.0 120.4 12 12
13 Laure Wakefield 9 Nolensville (TN) 4 21:22.0 119.6 13 13
14 Rainey Maurer 9 Nolensville (TN) 5 21:23.0 119.5 14 14
15 Grace Richter 9 Father Ryan (TN) 3 21:34.0 118.6 15 15
16 Anna Lasher 11 Nolensville (TN) 6 21:36.0 118.4 16 16
17 Polly Kalonick 10 Hume-Fogg Academic (TN) 1 21:43.0 117.7 17 17
18 Caroline Puryear 9 Father Ryan (TN) 4 21:49.0 117.2 18 18
19 June Dotson 10 Dickson County (TN) 3 21:55.0 116.7 19 19
20 Violet Evans 11 Hume-Fogg Academic (TN) 2 22:00.0 116.2 20 20
21 Zoey Rushing 11 Ensworth (TN) 2 22:01.0 116.2 21 21
22 Kaylynn Valdez 11 Dickson County (TN) 4 22:16.0 114.9 22 22
23 Ailee Ellis 10 Fairview (CO) 3 22:23.0 114.3 23 23
24 Jackie Seale 11 University School Of Nashville (TN) 1 22:24.0 114.2 24
25 Charlotte Morrison 9 Hume-Fogg Academic (TN) 3 22:31.0 113.6 24 25
26 Allison Moon 9 Riverdale (OR) 1 22:35.0 113.3 26
27 Julia Grace Linn 12 Ensworth (TN) 3 22:48.0 112.2 25 27
28 McKenzie Mullens 9 Nolensville (TN) 7 23:04.0 111.0 26 28
29 Colby Creely 9 Nolensville (TN) 8 23:09.0 110.6 1
30 Stella Graham 10 Hume-Fogg Academic (TN) 4 23:10.0 110.5 27 29
31 Nora Arender 11 St Cecilia Academy (TN) 1 23:14.0 110.2 28 30
32 Clarabelle Shafer 12 Father Ryan (TN) 5 23:15.0 110.1 29 31
33 Annabelle Bradford 11 Franklin Road Academy (TN) 1 23:23.0 109.5 30 32
34 Hadley Barrow 10 Kirkwood (MO) 1 23:24.0 109.4 31 33
35 Lillian Pickel 9 Franklin Road Academy (TN) 2 23:27.0 109.2 32 34
36 Grace Sauls 9 Columbia Central (MI) 1 23:29.0 109.0 35
37 Katherine Burgin 11 St Cecilia Academy (TN) 2 23:31.0 108.9 33 36
38 Heidi Jeppson 11 Dickson County (TN) 5 23:38.0 108.3 34 37
39 Emma Escalante 10 Fairview (CO) 4 23:39.0 108.3 35 38
40 Paige Burton 9 Kirkwood (MO) 2 23:40.0 108.2 36 39
41 Sara logan Verner 10 Grace Christian (Franklin) (TN) 1 23:45.0 107.8 37 40
42 Anna-Marie Porter 9 Grace Christian (Franklin) (TN) 2 23:49.0 107.5 38 41
43 Esther Mullins 10 Lipscomb Academy (TN) 1 23:55.0 107.1 39 42
44 Norah Harrison 11 University School Of Nashville (TN) 2 24:02.0 106.6 43
45 Eloise Poag 10 Hume-Fogg Academic (TN) 5 24:04.0 106.4 40 44
46 Nora Conway 12 Lipscomb Academy (TN) 2 24:08.0 106.1 41 45
47 Julia Young 11 University School Of Nashville (TN) 2 24:10.0 106.0 42 46
48 Sydney Lasher 9 University School Of Nashville (TN) 3 24:13.0 105.8 43 47
49 Saffley Hickman 9 Franklin Road Academy (TN) 3 24:17.0 105.5 44 48
50 Sarah Edwards 9 Fairview (CO) 5 24:23.0 105.0 45 49
51 Myla MacLean 11 Nolensville (TN) 9 24:25.0 104.9 2
52 Hannah Harwell 9 Harpeth Hall-Girls (TN) 2 24:26.0 104.8 46 50
53 Molly Stresser 12 Father Ryan (TN) 6 24:28.0 104.7 47 3
54 Kennedi Bowers 11 Lipscomb Academy (TN) 3 24:29.0 104.6 48 51
55 Lyla Ross 12 University School Of Nashville (TN) 4 24:31.0 104.5 49 52
56 Sarah Choma 11 Ensworth (TN) 4 24:33.0 104.3 50 53
57 Leah Harvey 10 Dickson County (TN) 6 24:39.0 103.9 51 54
58 Kherington Cost 11 Franklin Road Academy (TN) 4 24:39.0 103.9 52 55
59 Dani Munoz 12 Martin Luther King (CA) 1 24:43.0 103.6 53 56
60 Libby Tanner 12 Lipscomb Academy (TN) 4 24:44.0 103.6 54 57
61 Heidi Hunziker 9 Dickson County (TN) 7 24:45.0 103.6 55 58
62 Gia Lionello 11 Nolensville (TN) 10 24:56.0 102.8 4
63 Maya Riddle 10 Kirkwood (MO) 3 24:58.0 102.7 56 59
64 Kate West 12 Harpeth Hall-Girls (TN) 3 24:59.0 102.6 57 60
65 Brie Ann Genzer 12 Nolensville (TN) 11 25:01.0 102.4 5
66 Sadie Mae Bass 12 University School Of Nashville (TN) 5 25:03.0 102.3 58 61
67 Eva Pearson 9 Harpeth Hall-Girls (TN) 4 25:04.0 102.2 59 62
68 Eleanor Bonino 10 Martin Luther King (CA) 2 25:07.0 102.1 60 63
69 Maddie Mirzaie 10 Ensworth (TN) 5 25:10.0 101.8 61 64
70 Maya Feemster 9 Franklin Road Academy (TN) 5 25:11.0 101.8 62 65
71 Emmaline Womac 10 Dickson County (TN) 8 25:12.0 101.7 66
72 Amanda Criss 9 West Creek (TN) 1 25:13.0 101.6 67
73 Reese Salinas 9 Grace Christian (Franklin) (TN) 3 25:17.0 101.4 63 68
74 Marin Kurita 11 Ensworth (TN) 6 25:19.0 101.2 64 69
75 Riley Hollis 10 Creek Wood (TN) 1 25:42.0 99.7 70
76 Olivia Clemmons 9 Kirkwood (MO) 4 25:44.0 99.6 65 71
77 Aryianna Valadez 11 Columbia Central (MI) 1 25:49.0 72
78 Evelyn Welch 12 Hume-Fogg Academic (TN) 6 25:50.0 99.2 66 73
79 Ivy Talbot 11 Nolensville (TN) 12 25:54.0 99.0 6
80 Peyton Lenz 10 West Creek (TN) 2 25:55.0 98.9 74
81 Sutton Korn 11 Ensworth (TN) 7 25:57.0 98.8 67 75
82 Anna reid Stansell - Harpeth Hall-Girls (TN) 5 26:00.0 98.6 68 7
83 Adelaide Ritter 11 University School Of Nashville (TN) 3 26:03.0 98.4 8
84 Sarah Jane Rodgers 10 Father Ryan (TN) 7 26:05.0 98.3 69 9
85 Julia Head 10 Father Ryan (TN) 8 26:07.0 98.1 10
86 Gracie Herrera 9 Father Ryan (TN) 9 26:08.0 98.1 11
87 Lia Pennartz 11 Nolensville (TN) 13 26:10.0 97.9 12
88 Addison Smith 12 Harpeth Hall-Girls (TN) 6 26:15.0 97.6 70 76
89 Abby Brakefield 12 Nolensville (TN) 14 26:21.0 97.3 13
90 Anna byrns Ragle 11 Harpeth Hall-Girls (TN) 7 26:23.0 97.2 71 14
91 Sofia Perez 11 Father Ryan (TN) 10 26:25.0 97.0 15
92 Ruby York 9 Martin Luther King (CA) 3 26:26.0 97.0 72 77
93 Zoe Johnson 10 Harpeth Hall-Girls (TN) 8 26:27.0 96.9 78
94 Louisa Ekiss 10 Harpeth Hall-Girls (TN) 9 26:33.0 96.5 79
95 Bailey Miller 9 Nolensville (TN) 15 26:35.0 96.4 16
96 Ainsley Roberge 9 Nolensville (TN) 16 26:44.0 95.9 17
97 Brystolyn French 10 Kirkwood (MO) 5 26:46.0 95.8 73 80
98 Mary Ellen Axford 10 Franklin Road Academy (TN) 6 26:50.0 95.6 74 81
99 Berlin Manternach 10 Nolensville (TN) 17 26:55.0 95.3 18
100 Chloe Conn 12 Nolensville (TN) 18 27:01.0 94.9 19
101 Reagan Kooyenga 9 Chapel Hill Christian Academy (TN) 1 27:32.0 93.2 82
102 Greenlee Davidson 9 University School Of Nashville (TN) 6 27:36.0 93.0 75 20
103 Rita mae Krog 9 St Cecilia Academy (TN) 3 27:38.0 92.8 76 83
104 Ruth Holliday - Harpeth Hall-Girls (TN) 10 27:39.0 92.8 21
105 Madeline Graf 12 Harpeth Hall-Girls (TN) 11 27:41.0 92.7 22
106 Emma Clark 11 Harpeth Hall-Girls (TN) 12 27:42.0 92.6 23
107 Makaelyn Brockelman 9 Kirkwood (MO) 6 27:47.0 92.3 77 24
108 Anevaeh Jennings 9 Chapel Hill Christian Academy (TN) 2 28:04.0 91.4 84
109 Kristie Powell 9 Chapel Hill Christian Academy (TN) 3 28:05.0 91.4 85
110 Shayne Curtis 11 Lipscomb Academy (TN) 5 28:07.0 91.3 78 86
111 Ella Apthorp 9 University School Of Nashville (TN) 7 28:10.0 91.1 79 25
112 Ava Rayo 10 Father Ryan (TN) 11 28:12.0 91.0 26
113 Makayla Taylor 11 Kirkwood (MO) 7 28:13.0 91.0 80 27
114 Ann elise Alvarez 10 Grace Christian (Franklin) (TN) 4 28:20.0 90.6 81 87
115 Bethany Dowd 10 Dickson County (TN) 9 28:23.0 90.4 28
116 Ada Smith 11 St Cecilia Academy (TN) 4 28:24.0 90.4 82 88
117 Sarah Huddleston - Harpeth Hall-Girls (TN) 13 28:29.0 90.1 29
118 Grace Key 12 Gallatin (TN) 1 28:32.0 90.0 89
119 Hannah Sides - Harpeth Hall-Girls (TN) 14 28:36.0 89.7 30
120 Maribelle Watts 11 St Cecilia Academy (TN) 5 28:40.0 89.5 83 31
121 Cristarria Jakway 10 Kirkwood (MO) 8 28:41.0 89.5 90
122 Mary ellen Bess - Harpeth Hall-Girls (TN) 15 28:47.0 89.2 32
123 Madeline Kauffman 10 Creek Wood (TN) 2 28:49.0 89.1 91
124 Ruby Ward 11 Father Ryan (TN) 12 28:50.0 89.0 33
125 Ximena Vergara 9 Nolensville (TN) 19 28:54.0 88.8 34
126 Graydi Tillman 10 McEwen HS (TN) 1 28:55.0 88.8 84 92
127 Ceci Watkins 12 Fairview (CO) 6 28:58.0 88.6 85 93
128 Mariela Sanchez 10 St Cecilia Academy (TN) 6 28:58.0 88.6 86 35
129 Camila Martinez - Harpeth Hall-Girls (TN) 16 29:02.0 88.4 36
130 Amelia Hood 9 St Cecilia Academy (TN) 7 29:12.0 87.9 87 37
131 Maddie Cooper 9 Nolensville (TN) 20 29:13.0 87.9 38
132 Ruby Black 11 Gallatin (TN) 2 29:24.0 87.3 94
133 Manna Fanuel 10 Riverdale (OR) 2 29:26.0 87.2 95
134 Violet Burgin 9 St Cecilia Academy (TN) 8 29:45.0 86.3 39
135 Rianna Rourk 12 Northeast (FL) 1 30:07.0 85.3 96
136 Evelyn Mcknight - Harpeth Hall-Girls (TN) 17 30:18.0 84.8 40
137 Lila Cotten 12 Martin Luther King (CA) 4 30:24.0 84.5 88 97
138 Lily Yates 11 Grace Christian (Franklin) (TN) 5 30:28.0 84.3 89 98
139 Louisa Brown 12 Harpeth Hall-Girls (TN) 18 30:32.0 84.1 41
140 Sienna Dennis 10 Harpeth (TN) 1 30:33.0 84.1 99
141 Hailey Johnson 10 Creek Wood (TN) 3 30:36.0 83.9 100
142 Morgan Sutton 11 St Cecilia Academy (TN) 9 30:37.0 83.9 42
143 Allyson MAO 12 Harpeth Hall-Girls (TN) 19 30:38.0 83.9 43
144 Eileen Connor 10 Father Ryan (TN) 13 30:44.0 83.6 44
145 Lucy Martini 10 Father Ryan (TN) 14 30:48.0 83.4 45
146 Cristi Rastrero martin 11 Grace Christian (Franklin) (TN) 6 30:48.0 83.4 90 101
147 Layla Bokhari 10 Nolensville (TN) 21 30:52.0 83.2 46
148 Maria Grippo 9 St Cecilia Academy (TN) 10 31:05.0 82.7 47
149 Nevaeh Bowers 11 Martin Luther King (CA) 5 31:07.0 82.6 91 102
150 Emma Goode 11 Kirkwood (MO) 9 31:12.0 82.3 48
151 Sylvia Anderson 9 Northeast (FL) 2 31:12.0 82.3 103
152 Emma Mosier 9 Kirkwood (MO) 10 31:13.0 82.3 49
153 Cailyn Peralta 11 Lipscomb Academy (TN) 6 31:14.0 82.3 92 104
154 Ellie Johnson 9 Columbia Central (MI) 1 31:15.0 82.2 105
155 Anna Sloan 11 Lipscomb Academy (TN) 7 31:22.0 81.9 93 50
156 Emily Waszmer 10 Kirkwood (MO) 11 31:32.0 81.5 51
157 Mimi Steele - Harpeth Hall-Girls (TN) 20 31:33.0 81.4 52
158 Maggie Meacham - Harpeth Hall-Girls (TN) 21 31:38.0 81.2 53
159 Matilda Bennett 12 St Cecilia Academy (TN) 11 31:39.0 81.2 54
160 Ariyah Porter 9 West Creek (TN) 3 31:51.0 80.7 106
161 Virginia Grace Beasley 10 Harpeth Hall-Girls (TN) 22 31:59.0 80.4 55
162 Ella Sheffield 12 Riverdale (OR) 1 32:15.0 79.7 56
163 Rayleigh Sadler 9 Kirkwood (MO) 12 32:40.0 78.7 57
164 Aubrey Branch 8 McEwen HS (TN) 2 32:42.0 85.9 94 107
165 Rylan Gibson 10 St Cecilia Academy (TN) 12 32:43.0 78.6 58
166 Imaan Salad 9 University School Of Nashville (TN) 8 32:59.0 77.9 59
167 Callie Pritts - Harpeth Hall-Girls (TN) 23 33:00.0 77.9 60
168 Sarah FOX - Harpeth Hall-Girls (TN) 24 33:26.0 76.9 61
169 Mia Seltzer 9 University School Of Nashville (TN) 9 33:31.0 76.7 62
170 Natalie Walters 11 Kirkwood (MO) 13 33:32.0 76.7 63
171 Sophie Oakley 12 McEwen HS (TN) 3 33:54.0 75.9 95 108
172 Annaclaire Coleman 9 Kirkwood (MO) 14 34:38.0 74.3 64
173 Janeyah Brand 10 Dickson County (TN) 10 34:45.0 74.0 65
174 Adah Malone - Harpeth Hall-Girls (TN) 25 34:47.0 73.9 66
175 Elly FAY 12 Kirkwood (MO) 15 34:54.0 73.7 67
176 Ocie Barton 9 Chapel Hill Christian Academy (TN) 4 35:01.0 73.5 109
177 Jena Stokes 8 McEwen HS (TN) 4 35:03.0 73.4 96 110
178 Yazlin Delacerda 10 Dickson County (TN) 11 35:22.0 72.7 68
179 Alice Herman 9 Martin Luther King (CA) 6 35:35.0 72.3 97 69
180 Rose Steele 11 Gallatin (TN) 3 35:40.0 72.1 111
181 Simmons Bone - Harpeth Hall-Girls (TN) 26 35:50.0 71.8 70
182 Neveah Baxter 12 Columbia Central (MI) 2 35:51.0 71.8 112
183 Hensley Brown 12 Columbia Central (MI) 2 35:57.0 71.6 113
184 Attie Stanley - Harpeth Hall-Girls (TN) 27 36:21.0 70.8 71
185 Catherine Ridgway - Harpeth Hall-Girls (TN) 28 36:45.0 70.0 72
186 Madelyn Havens 9 Grace Christian (Franklin) (TN) 7 36:46.0 70.0 98 73
187 Joy Patrick 10 Grace Christian (Franklin) (TN) 8 36:47.0 70.0 74
188 Aliane Cifuentes 12 Northeast (FL) 3 37:08.0 69.3 114
189 Dasha Pinto Juarez 12 Riverdale (OR) 2 37:15.0 69.1 75
190 Brooklyn Kelsey 10 Lipscomb Academy (TN) 8 37:16.0 69.1 76
191 Ellena Burton 11 Kirkwood (MO) 16 37:32.0 68.6 77
192 Mylah Edwards - Dickson County (TN) 12 37:33.0 68.5 78
193 Vicky Urquiola 10 Lipscomb Academy (TN) 9 37:58.0 67.8 79
194 Lily Oakley 10 McEwen HS (TN) 5 38:21.0 99 115
195 Isabel Diorio 9 Kirkwood (MO) 17 38:23.0 67.1 80
196 Leila Freeman 9 Kirkwood (MO) 18 38:24.0 67.0 81
197 Kenzie Wilcox 9 Martin Luther King (CA) 7 38:25.0 67.0 100 82
198 Danaija Barner 12 Columbia Central (MI) 3 38:27.0 67.0 116
199 Ivy Brame-blake 11 Martin Luther King (CA) 8 38:41.0 66.6 83
200 Mary braden Weber 12 Harpeth Hall-Girls (TN) 29 38:45.0 66.4 84
201 Sims Downey - Harpeth Hall-Girls (TN) 30 38:55.0 66.2 85
202 Shyla Boyd 10 Kirkwood (MO) 19 39:07.0 65.8 86
203 Meghana Bangarn 10 Nolensville (TN) 22 39:23.0 65.4 87
204 Autumn Carter - Kirkwood (MO) 20 39:51.0 64.6 88
205 Ja'lissa Newby 9 Kirkwood (MO) 21 41:02.0 62.8 89
206 Annabelle Meaker - Harpeth Hall-Girls (TN) 31 41:19.0 62.4 90
207 Abigail Welk 9 Kirkwood (MO) 22 42:44.0 60.3 91
208 Caroline Miller 9 Riverdale (OR) 3 45:02.0 57.2 92
209 Marina Hannah 10 Riverdale (OR) 4 45:12.0 57.0 93
210 Pretty Ghobrial - Riverdale (OR) 1 45:16.0 56.9 94